N7QNM-13 Weather Reports


time (UTC)temp
C
wind
direction
speed
KPH
gust
KPH
rain 1hr
cm
rain 24hr
cm
rain mn
cm
humidity
%
barometer
mb
20260509045603 16 244 9.7 14.5 0.00 0.00 0.00 48 1016.9
20260509044603 16 238 8.0 11.3 0.00 0.00 0.00 46 1017.1
20260509043602 16 213 4.8 9.7 0.00 0.00 0.00 45 1017.0
20260509042602 16 195 1.6 4.8 0.00 0.00 0.00 45 1016.9
20260509041623 16 156 0.0 4.8 0.00 0.00 0.00 44 1016.6
20260509040602 17 0.0 0.0 0.00 0.00 0.00 43 1016.4
20260509035623 18 226 0.0 4.8 0.00 0.00 0.00 41 1016.2
20260509034603 19 162 3.2 6.4 0.00 0.00 0.00 39 1016.0
20260509033603 20 273 1.6 6.4 0.00 0.00 0.00 38 1015.7
20260509032623 20 251 4.8 6.4 0.00 0.00 0.00 38 1015.5
20260509031604 21 269 8.0 11.3 0.00 0.00 0.00 37 1015.3
20260509030604 21 272 9.7 16.1 0.00 0.00 0.00 36 1015.1
20260509025604 22 267 12.9 19.3 0.00 0.00 0.00 36 1014.9
20260509024605 22 267 12.9 16.1 0.00 0.00 0.00 34 1014.6
20260509023604 22 280 17.7 25.7 0.00 0.00 0.00 34 1014.4
20260509022605 23 276 16.1 33.8 0.00 0.00 0.00 32 1014.3
20260509021604 23 278 17.7 30.6 0.00 0.00 0.00 31 1014.1
20260509020604 23 281 19.3 27.4 0.00 0.00 0.00 31 1014.0
20260509015604 23 291 20.9 33.8 0.00 0.00 0.00 30 1013.9
20260509014605 24 283 19.3 32.2 0.00 0.00 0.00 31 1013.8
20260509013605 24 284 19.3 30.6 0.00 0.00 0.00 30 1013.7
20260509012625 25 304 17.7 33.8 0.00 0.00 0.00 31 1013.7
20260509011605 25 291 16.1 30.6 0.00 0.00 0.00 30 1013.6
20260509010645 25 298 19.3 32.2 0.00 0.00 0.00 30 1013.5
20260509005605 25 311 9.7 20.9 0.00 0.00 0.00 30 1013.5
20260509004605 25 262 19.3 29.0 0.00 0.00 0.00 30 1013.4
20260509003606 25 305 12.9 27.4 0.00 0.00 0.00 28 1013.4
20260509002606 26 304 16.1 29.0 0.00 0.00 0.00 28 1013.3
20260509001606 26 275 14.5 25.7 0.00 0.00 0.00 28 1013.2
20260509000626 26 279 19.3 37.0 0.00 0.00 0.00 27 1013.1
20260508235606 26 263 12.9 20.9 0.00 0.00 0.00 28 1013.1
20260508234606 26 291 6.4 16.1 0.00 0.00 0.00 28 1013.0
20260508233606 26 261 14.5 22.5 0.00 0.00 0.00 28 1013.1
20260508232626 26 287 9.7 19.3 0.00 0.00 0.00 27 1013.2
20260508231626 26 299 12.9 24.1 0.00 0.00 0.00 27 1013.1
20260508230606 26 311 3.2 19.3 0.00 0.00 0.00 27 1013.2
20260508225707 25 299 12.9 24.1 0.00 0.00 0.00 27 1013.2
20260508224607 26 296 11.3 27.4 0.00 0.00 0.00 28 1013.2
20260508223607 25 289 17.7 29.0 0.00 0.00 0.00 28 1013.2
20260508222607 25 299 16.1 27.4 0.00 0.00 0.00 27 1013.2
20260508221607 25 262 16.1 25.7 0.00 0.00 0.00 28 1013.2
20260508220607 25 307 9.7 30.6 0.00 0.00 0.00 28 1013.2
20260508215627 25 292 14.5 25.7 0.00 0.00 0.00 28 1013.3
20260508214607 25 311 3.2 12.9 0.00 0.00 0.00 26 1013.3
20260508213607 25 299 14.5 27.4 0.00 0.00 0.00 28 1013.4
20260508212608 25 269 11.3 27.4 0.00 0.00 0.00 27 1013.3
20260508211608 24 285 16.1 22.5 0.00 0.00 0.00 28 1013.3
20260508210608 24 301 14.5 20.9 0.00 0.00 0.00 28 1013.3
20260508205628 24 306 8.0 17.7 0.00 0.00 0.00 30 1013.4
20260508204610 23 245 9.7 19.3 0.00 0.00 0.00 31 1013.4
20260508203628 23 296 12.9 25.7 0.00 0.00 0.00 32 1013.5
20260508202609 23 246 11.3 20.9 0.00 0.00 0.00 33 1013.5
20260508201608 23 283 6.4 19.3 0.00 0.00 0.00 34 1013.6
20260508200608 23 22 0.0 3.2 0.00 0.00 0.00 35 1013.6
20260508200108 22 56 4.8 12.9 0.00 0.00 0.00 34 1013.6
20260508195109 22 49 3.2 16.1 0.00 0.00 0.00 34 1013.7
20260508194108 22 26 1.6 8.0 0.00 0.00 0.00 35 1013.6
20260508193109 23 322 1.6 8.0 0.00 0.00 0.00 34 1013.5
20260508192109 22 300 3.2 8.0 0.00 0.00 0.00 33 1013.7
20260508191109 22 7 3.2 9.7 0.00 0.00 0.00 35 1013.7
20260508190149 22 24 1.6 9.7 0.00 0.00 0.00 35 1013.7
20260508185129 22 315 1.6 8.0 0.00 0.00 0.00 34 1013.7
20260508184110 22 55 0.0 4.8 0.00 0.00 0.00 34 1013.7
20260508183109 21 299 1.6 8.0 0.00 0.00 0.00 34 1013.7
20260508182109 22 288 6.4 12.9 0.00 0.00 0.00 35 1013.9
20260508181110 21 312 3.2 9.7 0.00 0.00 0.00 35 1013.9
20260508180110 21 307 6.4 19.3 0.00 0.00 0.00 36 1014.0
20260508175110 21 266 8.0 17.7 0.00 0.00 0.00 36 1014.1
20260508174110 21 273 6.4 14.5 0.00 0.00 0.00 38 1014.0
20260508173110 20 291 1.6 8.0 0.00 0.00 0.00 38 1014.1
20260508172110 20 286 6.4 14.5 0.00 0.00 0.00 40 1014.3
20260508171111 19 266 4.8 11.3 0.00 0.00 0.00 40 1014.2
20260508170130 18 298 0.0 4.8 0.00 0.00 0.00 49 1014.2
20260508165110 17 0.0 0.0 0.00 0.00 0.00 54 1014.3
20260508164111 17 0.0 0.0 0.00 0.00 0.00 56 1014.3
20260508163111 17 290 0.0 3.2 0.00 0.00 0.00 56 1014.3
20260508162152 16 304 0.0 1.6 0.00 0.00 0.00 58 1014.3
20260508161131 16 0.0 0.0 0.00 0.00 0.00 62 1014.1
20260508160111 15 109 0.0 4.8 0.00 0.00 0.00 63 1014.2
20260508155151 15 0.0 0.0 0.00 0.00 0.00 65 1014.2
20260508154111 13 62 0.0 6.4 0.00 0.00 0.00 68 1014.0
20260508153111 13 0.0 0.0 0.00 0.00 0.00 70 1014.0
20260508152131 12 65 0.0 6.4 0.00 0.00 0.00 74 1014.0
20260508151111 11 90 0.0 4.8 0.00 0.00 0.00 76 1013.9
20260508150112 11 76 3.2 8.0 0.00 0.00 0.00 77 1013.9
20260508145132 10 139 0.0 4.8 0.00 0.00 0.00 81 1013.9
20260508144112 10 119 0.0 3.2 0.00 0.00 0.00 82 1013.8
20260508143132 10 0.0 0.0 0.00 0.00 0.00 82 1013.9
20260508142112 9 83 1.6 4.8 0.00 0.00 0.00 82 1013.7
20260508141112 9 72 4.8 6.4 0.00 0.00 0.00 82 1013.6
20260508140233 8 114 0.0 4.8 0.00 0.00 0.00 83 1013.6
20260508135113 8 136 0.0 4.8 0.00 0.00 0.00 83 1013.5
20260508134113 8 76 0.0 4.8 0.00 0.00 0.00 84 1013.3
20260508133113 7 124 0.0 1.6 0.00 0.00 0.00 84 1013.3
20260508132113 7 0.0 0.0 0.00 0.00 0.00 84 1013.2
20260508131113 7 97 0.0 3.2 0.00 0.00 0.00 84 1013.0
20260508130114 7 0.0 0.0 0.00 0.00 0.00 84 1013.0
20260508125133 7 60 0.0 3.2 0.00 0.00 0.00 83 1012.9
20260508124114 7 59 0.0 3.2 0.00 0.00 0.00 83 1012.9
20260508123134 7 54 0.0 4.8 0.00 0.00 0.00 83 1012.9
20260508122114 6 161 0.0 1.6 0.00 0.00 0.00 83 1012.9
20260508121114 6 246 0.0 3.2 0.00 0.00 0.00 83 1013.0
20260508120113 6 269 0.0 1.6 0.00 0.00 0.00 83 1012.9
20260508115114 6 130 0.0 1.6 0.00 0.00 0.00 83 1012.9
20260508114114 6 0.0 0.0 0.00 0.00 0.00 83 1012.9
20260508113114 7 355 0.0 3.2 0.00 0.00 0.00 83 1012.8
20260508112114 6 191 0.0 1.6 0.00 0.00 0.00 83 1012.8
20260508111114 6 235 0.0 1.6 0.00 0.00 0.00 83 1012.7
20260508110115 7 47 1.6 6.4 0.00 0.00 0.00 83 1012.5
20260508105136 7 249 0.0 3.2 0.00 0.00 0.00 82 1012.4
20260508104114 7 310 0.0 3.2 0.00 0.00 0.00 82 1012.5
20260508103115 7 99 1.6 6.4 0.00 0.00 0.00 82 1012.4
20260508102135 7 146 0.0 1.6 0.00 0.00 0.00 80 1012.4
20260508101135 7 0.0 0.0 0.00 0.00 0.00 79 1012.4
20260508100115 7 175 0.0 3.2 0.00 0.00 0.00 77 1012.3
20260508095115 8 0.0 0.0 0.00 0.00 0.00 76 1012.3
20260508094115 8 133 0.0 0.0 0.00 0.00 0.00 75 1012.2
20260508093116 8 95 0.0 1.6 0.00 0.00 0.00 73 1012.2
20260508092115 8 65 1.6 4.8 0.00 0.00 0.00 73 1012.3
20260508091116 8 64 0.0 3.2 0.00 0.00 0.00 71 1012.3
20260508090116 9 127 0.0 3.2 0.00 0.00 0.00 70 1012.3
20260508085116 9 107 0.0 3.2 0.00 0.00 0.00 68 1012.3
20260508084116 10 115 0.0 4.8 0.00 0.00 0.00 67 1012.3
20260508083116 10 166 0.0 0.0 0.00 0.00 0.00 65 1012.3
20260508082116 11 209 0.0 3.2 0.00 0.00 0.00 62 1012.2
20260508081117 11 110 0.0 4.8 0.00 0.00 0.00 61 1012.2
20260508080117 11 151 1.6 6.4 0.00 0.00 0.00 57 1012.2
20260508075016 11 182 1.6 4.8 0.00 0.00 0.00 61 1012.2
20260508074017 11 226 1.6 4.8 0.00 0.00 0.00 63 1012.1
20260508073117 11 62 8.0 11.3 0.00 0.00 0.00 63 1012.1
20260508072117 11 116 3.2 8.0 0.00 0.00 0.00 62 1012.0
20260508071117 12 115 3.2 6.4 0.00 0.00 0.00 60 1012.0
20260508070117 12 220 0.0 1.6 0.00 0.00 0.00 57 1011.9
20260508065017 12 126 0.0 3.2 0.00 0.00 0.00 55 1011.9
20260508064017 13 152 0.0 1.6 0.00 0.00 0.00 55 1011.9
20260508063037 13 0.0 0.0 0.00 0.00 0.00 55 1011.9
20260508062117 13 111 1.6 8.0 0.00 0.00 0.00 54 1011.8
20260508061118 13 131 1.6 4.8 0.00 0.00 0.00 54 1011.8
20260508060018 15 108 0.0 3.2 0.00 0.00 0.00 53 1011.7
20260508055018 15 3 0.0 1.6 0.00 0.00 0.00 49 1011.6
20260508054018 15 190 0.0 3.2 0.00 0.00 0.00 49 1011.5
20260508053018 15 172 0.0 3.2 0.00 0.00 0.00 51 1011.5
20260508052018 15 131 1.6 4.8 0.00 0.00 0.00 51 1011.5
20260508051018 15 179 0.0 1.6 0.00 0.00 0.00 51 1011.4
20260508050039 16 97 0.0 1.6 0.00 0.00 0.00 50 1011.3